Regional Weather Roundup
Issued by NWS

Home | Current Version | Previous Version | Graphics & Text | Print | Product List | Glossary On
Versions: 1 2 3 4 5 6 7 8 9 10 11 12 13 14 15 16 17 18 19 20 21 22 23 24 25 26 27 28 29 30 31 32 33 34 35 36 37 38 39 40 41 42 43 44 45 46 47 48 49 50
000
ASUS43 KLMK 112210
RWRKY
KENTUCKY REGIONAL WEATHER ROUNDUP
NATIONAL WEATHER SERVICE LOUISVILLE KY
500 PM EST THU FEB 11 2016

NOTE "FAIR" INDICATES FEW OR NO CLOUDS BELOW 12,000 FEET
WITH NO SIGNIFICANT WEATHER AND/OR OBSTRUCTIONS TO VISIBILITY.

KYZ001>023-026-027-061>063-070>075-112300-
WESTERN AND SOUTH CENTRAL KENTUCKY

CITY           SKY/WX    TMP DP  RH WIND       PRES   REMARKS
PADUCAH        SUNNY     38  21  50 NE8       30.27R WCI  32
HENDERSON      SUNNY     30  12  47 NE6       30.30R WCI  24
OWENSBORO      SUNNY     32  11  41 NE6       30.30R WCI  26
HOPKINSVILLE   MOSUNNY   37  23  56 NE8       30.24R WCI  31
BOWLING GREEN  SUNNY     38  17  42 NE3       30.26R
GLASGOW        SUNNY     35  17  49 CALM      30.25R
$$

KYZ024-025-028>034-038-045-046-053-112300-
NORTH CENTRAL KENTUCKY

CITY           SKY/WX    TMP DP  RH WIND       PRES   REMARKS
LOUISVILLE/SDF MOSUNNY   33   3  28 CALM      30.29R
LOUISVILLE/LOU SUNNY     31   6  35 CALM      30.29R
FORT KNOX      SUNNY     31   8  39 N8        30.25R WCI  23
$$

KYZ035>037-039>044-047>052-055>060-089>105-112300-
NORTHEAST KENTUCKY

CITY           SKY/WX    TMP DP  RH WIND       PRES   REMARKS
LEXINGTON      SUNNY     29  12  49 CALM      30.25R
COVINGTON      MOSUNNY   25   5  42 CALM      30.28R
FRANKFORT      SUNNY     29   6  38 VRB5      30.26R WCI  24
$$

KYZ054-064>069-076>088-106>120-112300-
SOUTHEAST KENTUCKY

CITY           SKY/WX    TMP DP  RH WIND       PRES   REMARKS
JACKSON        SUNNY     30   5  34 CALM      30.21R
LONDON         SUNNY     33   7  33 NW6       30.21R WCI  28
SOMERSET       SUNNY     32  14  47 CALM      30.25S
MIDDLESBORO    SUNNY     35  17  47 N5        30.21S WCI  31
MONTICELLO     CLEAR     33  18  53 N15       30.25R WCI  23
$$




USA.gov is the U.S. government's official web portal to all federal, state and local government web resources and services.